Time,TemperatureF,DewpointF,PressureIn,WindDirection,WindDirectionDegrees,WindSpeedMPH,WindSpeedGustMPH,Humidity,HourlyPrecipIn,Conditions,Clouds,dailyrainin,SoftwareType,DateUTC
2013-10-23 00:01:00,47.5,28.2,30.15,ESE,112,0.0,0.0,47,0.00,,,0.00,WUHU21623XXSP,2013-10-23 06:01:00,
2013-10-23 00:06:00,47.5,28.2,30.16,ESE,112,0.0,0.0,47,0.00,,,0.00,WUHU21623XXSP,2013-10-23 06:06:00,
2013-10-23 00:11:00,47.5,27.6,30.15,ESE,112,0.0,0.0,46,0.00,,,0.00,WUHU21623XXSP,2013-10-23 06:11:00,
2013-10-23 00:16:00,47.5,28.2,30.16,ESE,112,0.0,0.0,47,0.00,,,0.00,WUHU21623XXSP,2013-10-23 06:16:00,
2013-10-23 00:21:00,47.4,28.1,30.15,ESE,112,0.0,0.0,47,0.00,,,0.00,WUHU21623XXSP,2013-10-23 06:21:00,
2013-10-23 00:26:00,47.2,27.9,30.15,ESE,112,0.0,0.0,47,0.00,,,0.00,WUHU21623XXSP,2013-10-23 06:26:00,
2013-10-23 00:31:00,47.0,27.7,30.15,ESE,112,0.0,0.0,47,0.00,,,0.00,WUHU21623XXSP,2013-10-23 06:31:00,
2013-10-23 00:36:00,47.2,27.9,30.16,ESE,112,0.0,0.0,47,0.00,,,0.00,WUHU21623XXSP,2013-10-23 06:36:00,
2013-10-23 00:41:00,47.2,27.4,30.16,ESE,112,0.0,0.0,46,0.00,,,0.00,WUHU21623XXSP,2013-10-23 06:41:00,
2013-10-23 00:46:00,47.2,27.4,30.16,ESE,112,0.0,0.0,46,0.00,,,0.00,WUHU21623XXSP,2013-10-23 06:46:00,
2013-10-23 00:51:00,47.2,27.4,30.16,ESE,112,0.0,0.0,46,0.00,,,0.00,WUHU21623XXSP,2013-10-23 06:51:00,
2013-10-23 00:56:00,47.0,27.2,30.16,ESE,112,0.0,0.0,46,0.00,,,0.00,WUHU21623XXSP,2013-10-23 06:56:00,
2013-10-23 01:01:00,46.8,27.0,30.16,ESE,112,0.0,0.0,46,0.00,,,0.00,WUHU21623XXSP,2013-10-23 07:01:00,
2013-10-23 01:06:00,46.8,27.0,30.16,ESE,112,0.0,0.0,46,0.00,,,0.00,WUHU21623XXSP,2013-10-23 07:06:00,
2013-10-23 01:11:00,46.6,27.3,30.16,ESE,112,0.0,0.0,47,0.00,,,0.00,WUHU21623XXSP,2013-10-23 07:11:00,
2013-10-23 01:16:00,46.8,27.5,30.16,ESE,112,0.0,0.0,47,0.00,,,0.00,WUHU21623XXSP,2013-10-23 07:16:00,
2013-10-23 01:21:00,46.6,27.3,30.16,ESE,112,0.0,0.0,47,0.00,,,0.00,WUHU21623XXSP,2013-10-23 07:21:00,
2013-10-23 01:26:00,46.3,27.1,30.16,ESE,112,0.0,0.0,47,0.00,,,0.00,WUHU21623XXSP,2013-10-23 07:26:00,
2013-10-23 01:31:00,45.7,27.0,30.16,ESE,112,0.0,0.0,48,0.00,,,0.00,WUHU21623XXSP,2013-10-23 07:31:00,
2013-10-23 01:36:00,45.4,26.7,30.16,ESE,112,0.0,0.0,48,0.00,,,0.00,WUHU21623XXSP,2013-10-23 07:36:00,
2013-10-23 01:41:00,44.6,26.6,30.16,ESE,112,0.0,0.0,49,0.00,,,0.00,WUHU21623XXSP,2013-10-23 07:41:00,
2013-10-23 01:46:00,44.0,26.5,30.16,ESE,112,0.0,0.0,50,0.00,,,0.00,WUHU21623XXSP,2013-10-23 07:46:00,
2013-10-23 01:51:00,43.5,26.6,30.16,ESE,112,0.0,0.0,51,0.00,,,0.00,WUHU21623XXSP,2013-10-23 07:51:00,
2013-10-23 01:56:00,43.7,26.2,30.16,ESE,112,0.0,0.0,50,0.00,,,0.00,WUHU21623XXSP,2013-10-23 07:56:00,
2013-10-23 02:01:00,43.8,26.3,30.16,ESE,112,0.0,0.0,50,0.00,,,0.00,WUHU21623XXSP,2013-10-23 08:01:00,
2013-10-23 02:06:00,44.4,26.4,30.16,ESE,112,0.0,0.0,49,0.00,,,0.00,WUHU21623XXSP,2013-10-23 08:06:00,
2013-10-23 02:11:00,44.7,26.6,30.16,ESE,112,0.0,0.0,49,0.00,,,0.00,WUHU21623XXSP,2013-10-23 08:11:00,
2013-10-23 02:16:00,44.9,26.8,30.16,ESE,112,0.0,0.0,49,0.00,,,0.00,WUHU21623XXSP,2013-10-23 08:16:00,
2013-10-23 02:21:00,45.2,26.6,30.16,ESE,112,0.0,0.0,48,0.00,,,0.00,WUHU21623XXSP,2013-10-23 08:21:00,
2013-10-23 02:26:00,45.5,26.9,30.15,ESE,112,0.0,0.0,48,0.00,,,0.00,WUHU21623XXSP,2013-10-23 08:26:00,
2013-10-23 02:31:00,45.7,26.5,30.15,ESE,112,0.0,0.0,47,0.00,,,0.00,WUHU21623XXSP,2013-10-23 08:31:00,
2013-10-23 02:36:00,46.1,26.9,30.15,ESE,112,0.0,0.0,47,0.00,,,0.00,WUHU21623XXSP,2013-10-23 08:36:00,
2013-10-23 02:41:00,46.1,26.9,30.15,ESE,112,0.0,0.0,47,0.00,,,0.00,WUHU21623XXSP,2013-10-23 08:41:00,
2013-10-23 02:46:00,46.1,26.9,30.15,ESE,112,0.0,0.0,47,0.00,,,0.00,WUHU21623XXSP,2013-10-23 08:46:00,
2013-10-23 02:51:00,46.0,26.3,30.15,ESE,112,0.0,0.0,46,0.00,,,0.00,WUHU21623XXSP,2013-10-23 08:51:00,
2013-10-23 02:56:00,46.0,26.3,30.15,ESE,112,0.0,0.0,46,0.00,,,0.00,WUHU21623XXSP,2013-10-23 08:56:00,
2013-10-23 03:01:00,46.0,26.3,30.15,ESE,112,0.0,0.0,46,0.00,,,0.00,WUHU21623XXSP,2013-10-23 09:01:00,
2013-10-23 03:06:00,46.0,26.3,30.15,ESE,112,0.0,0.0,46,0.00,,,0.00,WUHU21623XXSP,2013-10-23 09:06:00,
2013-10-23 03:11:00,46.0,26.2,30.15,ESE,112,0.0,0.0,46,0.00,,,0.00,WUHU21623XXSP,2013-10-23 09:11:00,
2013-10-23 03:16:00,45.9,26.2,30.15,ESE,112,0.0,0.0,46,0.00,,,0.00,WUHU21623XXSP,2013-10-23 09:16:00,
2013-10-23 03:21:00,46.1,26.4,30.15,ESE,112,0.0,0.0,46,0.00,,,0.00,WUHU21623XXSP,2013-10-23 09:21:00,
2013-10-23 03:26:00,45.9,26.2,30.15,ESE,112,0.0,0.0,46,0.00,,,0.00,WUHU21623XXSP,2013-10-23 09:26:00,
2013-10-23 03:31:00,45.9,26.1,30.15,ESE,112,0.0,0.0,46,0.00,,,0.00,WUHU21623XXSP,2013-10-23 09:31:00,
2013-10-23 03:36:00,45.6,25.9,30.15,ESE,112,0.0,0.0,46,0.00,,,0.00,WUHU21623XXSP,2013-10-23 09:36:00,
2013-10-23 03:41:00,45.4,25.7,30.15,ESE,112,0.0,0.0,46,0.00,,,0.00,WUHU21623XXSP,2013-10-23 09:41:00,
2013-10-23 03:46:00,45.4,25.7,30.15,ESE,112,0.0,0.0,46,0.00,,,0.00,WUHU21623XXSP,2013-10-23 09:46:00,
2013-10-23 03:51:00,45.2,25.5,30.15,ESE,112,0.0,0.0,46,0.00,,,0.00,WUHU21623XXSP,2013-10-23 09:51:00,
2013-10-23 03:56:00,45.1,25.5,30.15,ESE,112,0.0,0.0,46,0.00,,,0.00,WUHU21623XXSP,2013-10-23 09:56:00,
2013-10-23 04:01:00,45.1,26.0,30.15,ESE,112,0.0,0.0,47,0.00,,,0.00,WUHU21623XXSP,2013-10-23 10:01:00,
2013-10-23 04:06:00,44.8,25.7,30.15,ESE,112,0.0,0.0,47,0.00,,,0.00,WUHU21623XXSP,2013-10-23 10:06:00,
2013-10-23 04:11:00,44.8,25.7,30.15,ESE,112,0.0,0.0,47,0.00,,,0.00,WUHU21623XXSP,2013-10-23 10:11:00,
2013-10-23 04:16:00,44.5,25.5,30.15,ESE,112,0.0,0.0,47,0.00,,,0.00,WUHU21623XXSP,2013-10-23 10:16:00,
2013-10-23 04:21:00,44.5,25.4,30.15,ESE,112,0.0,0.0,47,0.00,,,0.00,WUHU21623XXSP,2013-10-23 10:21:00,
2013-10-23 04:26:00,44.5,25.4,30.15,ESE,112,0.0,0.0,47,0.00,,,0.00,WUHU21623XXSP,2013-10-23 10:26:00,
2013-10-23 04:31:00,44.5,25.4,30.15,ESE,112,0.0,0.0,47,0.00,,,0.00,WUHU21623XXSP,2013-10-23 10:31:00,
2013-10-23 04:36:00,44.2,25.2,30.15,ESE,112,0.0,0.0,47,0.00,,,0.00,WUHU21623XXSP,2013-10-23 10:36:00,
2013-10-23 04:41:00,44.2,25.1,30.15,ESE,112,0.0,0.0,47,0.00,,,0.00,WUHU21623XXSP,2013-10-23 10:41:00,
2013-10-23 04:46:00,44.2,25.1,30.15,ESE,112,0.0,0.0,47,0.00,,,0.00,WUHU21623XXSP,2013-10-23 10:46:00,
2013-10-23 04:51:00,44.5,24.9,30.15,ESE,112,0.0,0.0,46,0.00,,,0.00,WUHU21623XXSP,2013-10-23 10:51:00,
2013-10-23 04:56:00,44.7,25.1,30.15,ESE,112,0.0,0.0,46,0.00,,,0.00,WUHU21623XXSP,2013-10-23 10:56:00,
2013-10-23 05:01:00,44.5,24.9,30.15,ESE,112,0.0,0.0,46,0.00,,,0.00,WUHU21623XXSP,2013-10-23 11:01:00,
2013-10-23 05:06:00,44.4,24.8,30.15,ESE,112,0.0,0.0,46,0.00,,,0.00,WUHU21623XXSP,2013-10-23 11:06:00,
2013-10-23 05:11:00,44.2,24.6,30.15,ESE,112,0.0,0.0,46,0.00,,,0.00,WUHU21623XXSP,2013-10-23 11:11:00,
2013-10-23 05:16:00,44.2,24.6,30.15,ESE,112,0.0,0.0,46,0.00,,,0.00,WUHU21623XXSP,2013-10-23 11:16:00,
2013-10-23 05:21:00,44.0,24.4,30.15,ESE,112,0.0,0.0,46,0.00,,,0.00,WUHU21623XXSP,2013-10-23 11:21:00,
2013-10-23 05:26:00,44.1,24.5,30.15,ESE,112,0.0,0.0,46,0.00,,,0.00,WUHU21623XXSP,2013-10-23 11:26:00,
2013-10-23 05:31:00,44.1,24.5,30.16,ESE,112,0.0,0.0,46,0.00,,,0.00,WUHU21623XXSP,2013-10-23 11:31:00,
2013-10-23 05:36:00,44.3,24.7,30.16,ESE,112,0.0,0.0,46,0.00,,,0.00,WUHU21623XXSP,2013-10-23 11:36:00,
2013-10-23 05:41:00,44.3,24.7,30.15,ESE,112,0.0,0.0,46,0.00,,,0.00,WUHU21623XXSP,2013-10-23 11:41:00,
2013-10-23 05:46:00,44.3,24.7,30.16,ESE,112,0.0,0.0,46,0.00,,,0.00,WUHU21623XXSP,2013-10-23 11:46:00,
2013-10-23 05:51:00,44.3,24.7,30.16,ESE,112,0.0,0.0,46,0.00,,,0.00,WUHU21623XXSP,2013-10-23 11:51:00,
2013-10-23 05:56:00,44.3,24.7,30.16,ESE,112,0.0,0.0,46,0.00,,,0.00,WUHU21623XXSP,2013-10-23 11:56:00,
2013-10-23 06:01:00,44.1,24.5,30.16,ESE,112,0.0,0.0,46,0.00,,,0.00,WUHU21623XXSP,2013-10-23 12:01:00,
2013-10-23 06:06:00,44.1,24.5,30.15,ESE,112,0.0,0.0,46,0.00,,,0.00,WUHU21623XXSP,2013-10-23 12:06:00,
2013-10-23 06:11:00,43.9,24.3,30.15,ESE,112,0.0,0.0,46,0.00,,,0.00,WUHU21623XXSP,2013-10-23 12:11:00,
2013-10-23 06:16:00,43.9,24.3,30.15,ESE,112,0.0,0.0,46,0.00,,,0.00,WUHU21623XXSP,2013-10-23 12:16:00,
2013-10-23 06:21:00,43.9,24.3,30.15,ESE,112,0.0,0.0,46,0.00,,,0.00,WUHU21623XXSP,2013-10-23 12:21:00,
2013-10-23 06:26:00,43.9,24.3,30.15,ESE,112,0.0,0.0,46,0.00,,,0.00,WUHU21623XXSP,2013-10-23 12:26:00,
2013-10-23 06:31:00,43.9,23.8,30.15,ESE,112,0.0,0.0,45,0.00,,,0.00,WUHU21623XXSP,2013-10-23 12:31:00,
2013-10-23 06:36:00,44.3,24.2,30.15,ESE,112,0.0,0.0,45,0.00,,,0.00,WUHU21623XXSP,2013-10-23 12:36:00,
2013-10-23 06:41:00,44.3,24.2,30.15,ESE,112,0.0,0.0,45,0.00,,,0.00,WUHU21623XXSP,2013-10-23 12:41:00,
2013-10-23 06:46:00,44.3,24.2,30.15,ESE,112,0.0,0.0,45,0.00,,,0.00,WUHU21623XXSP,2013-10-23 12:46:00,
2013-10-23 06:51:00,44.3,24.2,30.15,ESE,112,0.0,0.0,45,0.00,,,0.00,WUHU21623XXSP,2013-10-23 12:51:00,
2013-10-23 06:56:00,44.5,23.8,30.15,ESE,112,0.0,0.0,44,0.00,,,0.00,WUHU21623XXSP,2013-10-23 12:56:00,
2013-10-23 07:01:00,44.5,23.8,30.15,ESE,112,0.0,0.0,44,0.00,,,0.00,WUHU21623XXSP,2013-10-23 13:01:00,
2013-10-23 07:06:00,44.3,23.6,30.15,ESE,112,0.0,0.0,44,0.00,,,0.00,WUHU21623XXSP,2013-10-23 13:06:00,
2013-10-23 07:11:00,44.3,24.2,30.15,ESE,112,0.0,0.0,45,0.00,,,0.00,WUHU21623XXSP,2013-10-23 13:11:00,
2013-10-23 07:16:00,44.3,24.2,30.16,ESE,112,0.0,0.0,45,0.00,,,0.00,WUHU21623XXSP,2013-10-23 13:16:00,
2013-10-23 07:21:00,44.1,23.4,30.16,ESE,112,0.0,0.0,44,0.00,,,0.00,WUHU21623XXSP,2013-10-23 13:21:00,
2013-10-23 07:26:00,44.1,23.4,30.16,ESE,112,0.0,0.0,44,0.00,,,0.00,WUHU21623XXSP,2013-10-23 13:26:00,
2013-10-23 07:31:00,44.1,23.4,30.16,ESE,112,0.0,0.0,44,0.00,,,0.00,WUHU21623XXSP,2013-10-23 13:31:00,
2013-10-23 07:36:00,44.3,23.6,30.16,ESE,112,0.0,0.0,44,0.00,,,0.00,WUHU21623XXSP,2013-10-23 13:36:00,
2013-10-23 07:41:00,44.3,23.6,30.16,ESE,112,0.0,0.0,44,0.00,,,0.00,WUHU21623XXSP,2013-10-23 13:41:00,
2013-10-23 07:46:00,44.3,23.6,30.16,ESE,112,0.0,0.0,44,0.00,,,0.00,WUHU21623XXSP,2013-10-23 13:46:00,
2013-10-23 07:51:00,44.3,23.6,30.16,ESE,112,0.0,0.0,44,0.00,,,0.00,WUHU21623XXSP,2013-10-23 13:51:00,
2013-10-23 07:56:00,44.3,23.6,30.16,ESE,112,0.0,0.0,44,0.00,,,0.00,WUHU21623XXSP,2013-10-23 13:56:00,
2013-10-23 08:01:00,44.3,24.2,30.17,ESE,112,0.0,0.0,45,0.00,,,0.00,WUHU21623XXSP,2013-10-23 14:01:00,
2013-10-23 08:06:00,44.6,24.4,30.17,ESE,112,0.0,0.0,45,0.00,,,0.00,WUHU21623XXSP,2013-10-23 14:06:00,
2013-10-23 08:11:00,44.6,23.9,30.17,ESE,112,0.0,0.0,44,0.00,,,0.00,WUHU21623XXSP,2013-10-23 14:11:00,
2013-10-23 08:16:00,44.8,24.1,30.17,ESE,112,0.0,0.0,44,0.00,,,0.00,WUHU21623XXSP,2013-10-23 14:16:00,
2013-10-23 08:21:00,45.5,24.7,30.17,ESE,112,0.0,0.0,44,0.00,,,0.00,WUHU21623XXSP,2013-10-23 14:21:00,
2013-10-23 08:26:00,45.7,24.9,30.17,ESE,112,0.0,0.0,44,0.00,,,0.00,WUHU21623XXSP,2013-10-23 14:26:00,
2013-10-23 08:31:00,46.3,25.4,30.17,ESE,112,0.0,0.0,44,0.00,,,0.00,WUHU21623XXSP,2013-10-23 14:31:00,
2013-10-23 08:36:00,46.8,25.3,30.17,ESE,112,0.0,0.0,43,0.00,,,0.00,WUHU21623XXSP,2013-10-23 14:36:00,
2013-10-23 08:41:00,47.3,25.8,30.18,ESE,112,0.0,0.0,43,0.00,,,0.00,WUHU21623XXSP,2013-10-23 14:41:00,
2013-10-23 08:46:00,47.9,26.3,30.18,ESE,112,0.0,0.0,43,0.00,,,0.00,WUHU21623XXSP,2013-10-23 14:46:00,
2013-10-23 08:51:00,47.9,26.3,30.18,ESE,112,0.0,0.0,43,0.00,,,0.00,WUHU21623XXSP,2013-10-23 14:51:00,
2013-10-23 08:56:00,49.3,27.0,30.18,ESE,112,0.0,0.0,42,0.00,,,0.00,WUHU21623XXSP,2013-10-23 14:56:00,
2013-10-23 09:01:00,49.3,27.0,30.18,ESE,112,0.0,0.0,42,0.00,,,0.00,WUHU21623XXSP,2013-10-23 15:01:00,
2013-10-23 09:06:00,50.4,27.4,30.18,ESE,112,0.0,0.0,41,0.00,,,0.00,WUHU21623XXSP,2013-10-23 15:06:00,
2013-10-23 09:11:00,52.4,28.6,30.19,ESE,112,0.0,0.0,40,0.00,,,0.00,WUHU21623XXSP,2013-10-23 15:11:00,
2013-10-23 09:16:00,56.2,30.7,30.19,ESE,112,0.0,0.0,38,0.00,,,0.00,WUHU21623XXSP,2013-10-23 15:16:00,
2013-10-23 09:21:00,60.8,32.8,30.19,ESE,112,0.0,0.0,35,0.00,,,0.00,WUHU21623XXSP,2013-10-23 15:21:00,
2013-10-23 09:26:00,63.4,34.3,30.19,ESE,112,0.0,0.0,34,0.00,,,0.00,WUHU21623XXSP,2013-10-23 15:26:00,
2013-10-23 09:31:00,65.5,34.6,30.19,ESE,112,0.0,0.0,32,0.00,,,0.00,WUHU21623XXSP,2013-10-23 15:31:00,
2013-10-23 09:36:00,68.2,36.2,30.19,ESE,112,0.0,0.0,31,0.00,,,0.00,WUHU21623XXSP,2013-10-23 15:36:00,
2013-10-23 09:41:00,69.5,36.5,30.19,ESE,112,0.0,0.0,30,0.00,,,0.00,WUHU21623XXSP,2013-10-23 15:41:00,
2013-10-23 09:46:00,70.4,36.4,30.19,ESE,112,0.0,0.0,29,0.00,,,0.00,WUHU21623XXSP,2013-10-23 15:46:00,
2013-10-23 09:51:00,72.4,37.3,30.19,ESE,112,0.0,0.0,28,0.00,,,0.00,WUHU21623XXSP,2013-10-23 15:51:00,
2013-10-23 09:56:00,73.6,38.3,30.19,ESE,112,0.0,0.0,28,0.00,,,0.00,WUHU21623XXSP,2013-10-23 15:56:00,
2013-10-23 10:01:00,74.5,38.2,30.20,ESE,112,0.0,0.0,27,0.00,,,0.00,WUHU21623XXSP,2013-10-23 16:01:00,
2013-10-23 10:06:00,74.3,36.1,30.20,ESE,112,0.0,0.0,25,0.00,,,0.00,WUHU21623XXSP,2013-10-23 16:06:00,
2013-10-23 10:11:00,72.5,35.5,30.20,ESE,112,0.0,0.0,26,0.00,,,0.00,WUHU21623XXSP,2013-10-23 16:11:00,
2013-10-23 10:16:00,70.7,34.0,30.20,ESE,112,0.0,0.0,26,0.00,,,0.00,WUHU21623XXSP,2013-10-23 16:16:00,
2013-10-23 10:21:00,67.7,32.3,30.20,ESE,112,0.0,0.0,27,0.00,,,0.00,WUHU21623XXSP,2013-10-23 16:21:00,
2013-10-23 10:26:00,66.4,32.1,30.20,ESE,112,0.0,0.0,28,0.00,,,0.00,WUHU21623XXSP,2013-10-23 16:26:00,
2013-10-23 10:31:00,65.5,31.3,30.20,ESE,112,0.0,0.0,28,0.00,,,0.00,WUHU21623XXSP,2013-10-23 16:31:00,
2013-10-23 10:36:00,65.7,33.2,30.20,ESE,112,0.0,0.0,30,0.00,,,0.00,WUHU21623XXSP,2013-10-23 16:36:00,
2013-10-23 10:41:00,65.3,32.0,30.20,NNE,22,0.0,0.0,29,0.00,,,0.00,WUHU21623XXSP,2013-10-23 16:41:00,
2013-10-23 10:46:00,65.2,32.8,30.20,NNE,22,0.0,0.0,30,0.00,,,0.00,WUHU21623XXSP,2013-10-23 16:46:00,
2013-10-23 10:51:00,63.7,30.6,30.20,NNE,22,0.0,0.0,29,0.00,,,0.00,WUHU21623XXSP,2013-10-23 16:51:00,
2013-10-23 10:56:00,63.2,30.2,30.20,NNE,22,0.0,0.0,29,0.00,,,0.00,WUHU21623XXSP,2013-10-23 16:56:00,
2013-10-23 11:01:00,62.5,30.4,30.20,NNE,22,0.0,0.0,30,0.00,,,0.00,WUHU21623XXSP,2013-10-23 17:01:00,
2013-10-23 11:06:00,62.6,31.3,30.20,NNE,22,4.0,4.0,31,0.00,,,0.00,WUHU21623XXSP,2013-10-23 17:06:00,
2013-10-23 11:11:00,62.3,31.1,30.20,NNE,22,1.8,4.0,31,0.00,,,0.00,WUHU21623XXSP,2013-10-23 17:11:00,
2013-10-23 11:16:00,61.7,31.3,30.20,East,90,2.9,4.0,32,0.00,,,0.00,WUHU21623XXSP,2013-10-23 17:16:00,
2013-10-23 11:21:00,61.2,31.6,30.20,ESE,112,4.9,4.9,33,0.00,,,0.00,WUHU21623XXSP,2013-10-23 17:21:00,
2013-10-23 11:26:00,61.0,30.7,30.20,East,90,3.4,4.9,32,0.00,,,0.00,WUHU21623XXSP,2013-10-23 17:26:00,
2013-10-23 11:31:00,61.0,31.5,30.20,East,90,3.6,4.9,33,0.00,,,0.00,WUHU21623XXSP,2013-10-23 17:31:00,
2013-10-23 11:36:00,61.2,32.4,30.20,ESE,112,0.2,3.6,34,0.00,,,0.00,WUHU21623XXSP,2013-10-23 17:36:00,
2013-10-23 11:41:00,61.7,32.1,30.20,East,90,0.0,5.1,33,0.00,,,0.00,WUHU21623XXSP,2013-10-23 17:41:00,
2013-10-23 11:46:00,61.6,32.0,30.20,East,90,0.0,5.1,33,0.00,,,0.00,WUHU21623XXSP,2013-10-23 17:46:00,
2013-10-23 11:51:00,61.7,32.1,30.20,ESE,112,0.0,3.8,33,0.00,,,0.00,WUHU21623XXSP,2013-10-23 17:51:00,
2013-10-23 11:56:00,61.7,32.1,30.20,East,90,0.0,3.8,33,0.00,,,0.00,WUHU21623XXSP,2013-10-23 17:56:00,
2013-10-23 12:01:00,61.6,32.0,30.20,ESE,112,2.5,2.5,33,0.00,,,0.00,WUHU21623XXSP,2013-10-23 18:01:00,
2013-10-23 12:06:00,61.6,32.0,30.20,East,90,4.0,4.0,33,0.00,,,0.00,WUHU21623XXSP,2013-10-23 18:06:00,
2013-10-23 12:11:00,61.7,32.1,30.20,East,90,3.1,4.0,33,0.00,,,0.00,WUHU21623XXSP,2013-10-23 18:11:00,
2013-10-23 12:16:00,61.6,31.2,30.20,ESE,112,0.0,4.0,32,0.00,,,0.00,WUHU21623XXSP,2013-10-23 18:16:00,
2013-10-23 12:21:00,61.6,31.2,30.20,ESE,112,3.4,3.8,32,0.00,,,0.00,WUHU21623XXSP,2013-10-23 18:21:00,
2013-10-23 12:26:00,61.6,32.0,30.20,East,90,4.9,4.9,33,0.00,,,0.00,WUHU21623XXSP,2013-10-23 18:26:00,
2013-10-23 12:31:00,61.6,31.2,30.19,East,90,1.1,4.9,32,0.00,,,0.00,WUHU21623XXSP,2013-10-23 18:31:00,
2013-10-23 12:36:00,61.7,32.1,30.19,East,90,1.8,4.9,33,0.00,,,0.00,WUHU21623XXSP,2013-10-23 18:36:00,
2013-10-23 12:41:00,61.9,31.5,30.19,East,90,4.5,4.5,32,0.00,,,0.00,WUHU21623XXSP,2013-10-23 18:41:00,
2013-10-23 12:46:00,61.9,31.5,30.19,ENE,67,0.0,4.5,32,0.00,,,0.00,WUHU21623XXSP,2013-10-23 18:46:00,
2013-10-23 12:51:00,61.9,31.5,30.18,ESE,112,5.4,5.4,32,0.00,,,0.00,WUHU21623XXSP,2013-10-23 18:51:00,
2013-10-23 12:56:00,61.6,31.2,30.18,East,90,0.0,5.4,32,0.00,,,0.00,WUHU21623XXSP,2013-10-23 18:56:00,
2013-10-23 13:01:00,61.7,32.1,30.17,East,90,1.8,5.4,33,0.00,,,0.00,WUHU21623XXSP,2013-10-23 19:01:00,
2013-10-23 13:06:00,61.7,32.1,30.18,East,90,3.1,3.8,33,0.00,,,0.00,WUHU21623XXSP,2013-10-23 19:06:00,
2013-10-23 13:11:00,61.9,32.3,30.18,ESE,112,4.5,4.5,33,0.00,,,0.00,WUHU21623XXSP,2013-10-23 19:11:00,
2013-10-23 13:16:00,61.9,32.3,30.17,East,90,3.4,4.5,33,0.00,,,0.00,WUHU21623XXSP,2013-10-23 19:16:00,
2013-10-23 13:21:00,61.7,32.1,30.17,ESE,112,2.0,4.5,33,0.00,,,0.00,WUHU21623XXSP,2013-10-23 19:21:00,
2013-10-23 13:26:00,61.7,32.1,30.17,NE,45,0.0,3.4,33,0.00,,,0.00,WUHU21623XXSP,2013-10-23 19:26:00,
2013-10-23 13:31:00,61.7,32.1,30.17,ENE,67,0.9,2.0,33,0.00,,,0.00,WUHU21623XXSP,2013-10-23 19:31:00,
2013-10-23 13:36:00,61.6,32.0,30.17,East,90,0.0,2.0,33,0.00,,,0.00,WUHU21623XXSP,2013-10-23 19:36:00,
2013-10-23 13:41:00,61.6,32.7,30.17,East,90,0.0,2.0,34,0.00,,,0.00,WUHU21623XXSP,2013-10-23 19:41:00,
2013-10-23 13:46:00,61.6,32.7,30.17,East,90,0.0,0.0,34,0.00,,,0.00,WUHU21623XXSP,2013-10-23 19:46:00,
2013-10-23 13:51:00,61.6,32.7,30.17,ESE,112,1.6,2.5,34,0.00,,,0.00,WUHU21623XXSP,2013-10-23 19:51:00,
2013-10-23 13:56:00,61.4,32.6,30.17,East,90,3.4,3.4,34,0.00,,,0.00,WUHU21623XXSP,2013-10-23 19:56:00,
2013-10-23 14:01:00,61.4,32.6,30.16,East,90,1.6,3.4,34,0.00,,,0.00,WUHU21623XXSP,2013-10-23 20:01:00,
2013-10-23 14:06:00,61.4,32.6,30.17,East,90,3.6,5.4,34,0.00,,,0.00,WUHU21623XXSP,2013-10-23 20:06:00,
2013-10-23 14:11:00,61.4,32.6,30.16,ESE,112,2.7,5.4,34,0.00,,,0.00,WUHU21623XXSP,2013-10-23 20:11:00,
2013-10-23 14:16:00,61.4,32.6,30.16,North,0,3.6,3.6,34,0.00,,,0.00,WUHU21623XXSP,2013-10-23 20:16:00,
2013-10-23 14:21:00,61.7,32.8,30.16,ESE,112,0.0,3.6,34,0.00,,,0.00,WUHU21623XXSP,2013-10-23 20:21:00,
2013-10-23 14:26:00,61.9,33.0,30.16,East,90,0.0,3.6,34,0.00,,,0.00,WUHU21623XXSP,2013-10-23 20:26:00,
2013-10-23 14:31:00,61.7,32.1,30.16,East,90,7.2,7.2,33,0.00,,,0.00,WUHU21623XXSP,2013-10-23 20:31:00,
2013-10-23 14:36:00,61.4,32.6,30.16,East,90,4.5,7.2,34,0.00,,,0.00,WUHU21623XXSP,2013-10-23 20:36:00,
2013-10-23 14:41:00,61.0,31.5,30.16,ESE,112,0.0,6.0,33,0.00,,,0.00,WUHU21623XXSP,2013-10-23 20:41:00,
2013-10-23 14:46:00,61.0,31.5,30.16,ESE,112,0.0,4.5,33,0.00,,,0.00,WUHU21623XXSP,2013-10-23 20:46:00,
2013-10-23 14:51:00,61.4,31.8,30.16,East,90,2.7,2.7,33,0.00,,,0.00,WUHU21623XXSP,2013-10-23 20:51:00,
2013-10-23 14:56:00,61.4,31.8,30.16,ESE,112,0.0,2.7,33,0.00,,,0.00,WUHU21623XXSP,2013-10-23 20:56:00,
2013-10-23 15:01:00,61.4,31.8,30.16,East,90,1.1,2.7,33,0.00,,,0.00,WUHU21623XXSP,2013-10-23 21:01:00,
2013-10-23 15:06:00,61.6,32.0,30.16,ESE,112,6.9,6.9,33,0.00,,,0.00,WUHU21623XXSP,2013-10-23 21:06:00,
2013-10-23 15:11:00,61.6,32.0,30.16,ESE,112,6.0,6.9,33,0.00,,,0.00,WUHU21623XXSP,2013-10-23 21:11:00,
2013-10-23 15:16:00,61.4,31.8,30.16,ESE,112,4.3,6.9,33,0.00,,,0.00,WUHU21623XXSP,2013-10-23 21:16:00,
2013-10-23 15:21:00,61.4,32.6,30.16,East,90,1.1,6.0,34,0.00,,,0.00,WUHU21623XXSP,2013-10-23 21:21:00,
2013-10-23 15:26:00,61.4,32.6,30.16,East,90,1.1,5.4,34,0.00,,,0.00,WUHU21623XXSP,2013-10-23 21:26:00,
2013-10-23 15:31:00,61.4,32.6,30.16,East,90,0.0,1.1,34,0.00,,,0.00,WUHU21623XXSP,2013-10-23 21:31:00,
2013-10-23 15:36:00,61.4,32.6,30.16,East,90,1.8,1.8,34,0.00,,,0.00,WUHU21623XXSP,2013-10-23 21:36:00,
2013-10-23 15:41:00,61.2,32.4,30.16,East,90,3.8,3.8,34,0.00,,,0.00,WUHU21623XXSP,2013-10-23 21:41:00,
2013-10-23 15:46:00,61.0,32.2,30.16,ENE,67,0.0,3.8,34,0.00,,,0.00,WUHU21623XXSP,2013-10-23 21:46:00,
2013-10-23 15:51:00,61.4,32.6,30.16,East,90,0.0,3.8,34,0.00,,,0.00,WUHU21623XXSP,2013-10-23 21:51:00,
2013-10-23 15:56:00,61.2,32.4,30.16,NE,45,1.8,4.0,34,0.00,,,0.00,WUHU21623XXSP,2013-10-23 21:56:00,
2013-10-23 16:01:00,61.0,32.2,30.16,East,90,2.7,4.0,34,0.00,,,0.00,WUHU21623XXSP,2013-10-23 22:01:00,
2013-10-23 16:06:00,61.0,32.2,30.16,East,90,2.9,2.9,34,0.00,,,0.00,WUHU21623XXSP,2013-10-23 22:06:00,
2013-10-23 16:11:00,60.5,32.5,30.16,ESE,112,0.0,4.7,35,0.00,,,0.00,WUHU21623XXSP,2013-10-23 22:11:00,
2013-10-23 16:16:00,60.5,33.2,30.16,East,90,0.0,4.7,36,0.00,,,0.00,WUHU21623XXSP,2013-10-23 22:16:00,
2013-10-23 16:21:00,60.5,33.2,30.16,East,90,2.0,2.2,36,0.00,,,0.00,WUHU21623XXSP,2013-10-23 22:21:00,
2013-10-23 16:26:00,60.1,32.8,30.16,East,90,0.0,2.0,36,0.00,,,0.00,WUHU21623XXSP,2013-10-23 22:26:00,
2013-10-23 16:31:00,59.8,32.6,30.16,ESE,112,0.0,2.0,36,0.00,,,0.00,WUHU21623XXSP,2013-10-23 22:31:00,
2013-10-23 16:36:00,59.2,32.0,30.16,East,90,3.4,3.4,36,0.00,,,0.00,WUHU21623XXSP,2013-10-23 22:36:00,
2013-10-23 16:41:00,59.2,32.7,30.16,East,90,0.0,3.4,37,0.00,,,0.00,WUHU21623XXSP,2013-10-23 22:41:00,
2013-10-23 16:46:00,59.0,32.6,30.16,East,90,2.0,3.4,37,0.00,,,0.00,WUHU21623XXSP,2013-10-23 22:46:00,
2013-10-23 16:51:00,59.0,32.6,30.16,East,90,0.0,2.9,37,0.00,,,0.00,WUHU21623XXSP,2013-10-23 22:51:00,
2013-10-23 16:56:00,59.0,32.6,30.16,ESE,112,0.0,5.6,37,0.00,,,0.00,WUHU21623XXSP,2013-10-23 22:56:00,
2013-10-23 17:01:00,58.5,32.1,30.17,ENE,67,2.5,5.6,37,0.00,,,0.00,WUHU21623XXSP,2013-10-23 23:01:00,
2013-10-23 17:06:00,58.1,32.4,30.17,East,90,0.0,2.5,38,0.00,,,0.00,WUHU21623XXSP,2013-10-23 23:06:00,
2013-10-23 17:11:00,58.0,32.3,30.17,ESE,112,1.1,2.5,38,0.00,,,0.00,WUHU21623XXSP,2013-10-23 23:11:00,
2013-10-23 17:16:00,57.4,31.8,30.17,East,90,0.0,3.1,38,0.00,,,0.00,WUHU21623XXSP,2013-10-23 23:16:00,
2013-10-23 17:21:00,57.4,32.5,30.17,East,90,0.0,3.1,39,0.00,,,0.00,WUHU21623XXSP,2013-10-23 23:21:00,
2013-10-23 17:26:00,57.2,32.3,30.17,East,90,2.5,2.5,39,0.00,,,0.00,WUHU21623XXSP,2013-10-23 23:26:00,
2013-10-23 17:31:00,56.9,32.0,30.17,East,90,2.0,2.5,39,0.00,,,0.00,WUHU21623XXSP,2013-10-23 23:31:00,
2013-10-23 17:36:00,56.5,32.3,30.17,East,90,2.7,2.7,40,0.00,,,0.00,WUHU21623XXSP,2013-10-23 23:36:00,
2013-10-23 17:41:00,56.3,32.1,30.17,East,90,0.0,2.7,40,0.00,,,0.00,WUHU21623XXSP,2013-10-23 23:41:00,
2013-10-23 17:46:00,56.0,31.8,30.17,East,90,2.9,2.9,40,0.00,,,0.00,WUHU21623XXSP,2013-10-23 23:46:00,
2013-10-23 17:51:00,55.6,32.1,30.17,ESE,112,0.0,2.9,41,0.00,,,0.00,WUHU21623XXSP,2013-10-23 23:51:00,
2013-10-23 17:56:00,55.1,31.7,30.17,ESE,112,0.0,2.9,41,0.00,,,0.00,WUHU21623XXSP,2013-10-23 23:56:00,
2013-10-23 18:01:00,54.9,31.5,30.17,East,90,0.0,0.7,41,0.00,,,0.00,WUHU21623XXSP,2013-10-24 00:01:00,
2013-10-23 18:06:00,54.4,31.6,30.17,East,90,3.6,3.6,42,0.00,,,0.00,WUHU21623XXSP,2013-10-24 00:06:00,
2013-10-23 18:11:00,54.0,31.3,30.17,East,90,0.0,3.6,42,0.00,,,0.00,WUHU21623XXSP,2013-10-24 00:11:00,
2013-10-23 18:16:00,53.5,31.4,30.17,East,90,0.0,3.6,43,0.00,,,0.00,WUHU21623XXSP,2013-10-24 00:16:00,
2013-10-23 18:21:00,52.9,30.9,30.18,East,90,0.0,0.0,43,0.00,,,0.00,WUHU21623XXSP,2013-10-24 00:21:00,
2013-10-23 18:26:00,52.9,31.5,30.18,East,90,0.0,0.0,44,0.00,,,0.00,WUHU21623XXSP,2013-10-24 00:26:00,
2013-10-23 18:31:00,52.4,31.0,30.18,East,90,0.0,0.0,44,0.00,,,0.00,WUHU21623XXSP,2013-10-24 00:31:00,
2013-10-23 18:36:00,52.0,31.2,30.18,East,90,0.0,0.0,45,0.00,,,0.00,WUHU21623XXSP,2013-10-24 00:36:00,
2013-10-23 18:41:00,51.8,31.0,30.18,East,90,0.0,0.0,45,0.00,,,0.00,WUHU21623XXSP,2013-10-24 00:41:00,
2013-10-23 18:46:00,51.7,30.9,30.18,East,90,0.0,0.0,45,0.00,,,0.00,WUHU21623XXSP,2013-10-24 00:46:00,
2013-10-23 18:51:00,50.9,30.8,30.18,East,90,0.0,0.0,46,0.00,,,0.00,WUHU21623XXSP,2013-10-24 00:51:00,
2013-10-23 18:56:00,50.6,30.5,30.19,East,90,0.0,0.0,46,0.00,,,0.00,WUHU21623XXSP,2013-10-24 00:56:00,
2013-10-23 19:01:00,50.0,30.5,30.19,East,90,0.0,0.0,47,0.00,,,0.00,WUHU21623XXSP,2013-10-24 01:01:00,
2013-10-23 19:06:00,49.3,30.4,30.19,East,90,0.0,0.0,48,0.00,,,0.00,WUHU21623XXSP,2013-10-24 01:06:00,
2013-10-23 19:11:00,48.8,30.4,30.19,East,90,0.0,0.0,49,0.00,,,0.00,WUHU21623XXSP,2013-10-24 01:11:00,
2013-10-23 19:16:00,48.8,30.4,30.19,East,90,0.0,0.0,49,0.00,,,0.00,WUHU21623XXSP,2013-10-24 01:16:00,
2013-10-23 19:21:00,48.8,30.9,30.19,East,90,0.0,0.0,50,0.00,,,0.00,WUHU21623XXSP,2013-10-24 01:21:00,
2013-10-23 19:26:00,48.4,30.6,30.20,East,90,0.0,0.0,50,0.00,,,0.00,WUHU21623XXSP,2013-10-24 01:26:00,
2013-10-23 19:31:00,48.4,30.6,30.20,East,90,0.0,0.0,50,0.00,,,0.00,WUHU21623XXSP,2013-10-24 01:31:00,
2013-10-23 19:36:00,47.9,30.6,30.20,East,90,0.0,0.0,51,0.00,,,0.00,WUHU21623XXSP,2013-10-24 01:36:00,
2013-10-23 19:41:00,47.9,30.6,30.20,East,90,0.0,0.0,51,0.00,,,0.00,WUHU21623XXSP,2013-10-24 01:41:00,
2013-10-23 19:46:00,47.3,30.1,30.20,East,90,0.0,0.0,51,0.00,,,0.00,WUHU21623XXSP,2013-10-24 01:46:00,
2013-10-23 19:51:00,47.0,30.3,30.20,East,90,0.0,0.0,52,0.00,,,0.00,WUHU21623XXSP,2013-10-24 01:51:00,
2013-10-23 19:56:00,47.0,30.3,30.20,East,90,0.0,0.0,52,0.00,,,0.00,WUHU21623XXSP,2013-10-24 01:56:00,
2013-10-23 20:01:00,47.3,30.6,30.20,East,90,0.0,0.0,52,0.00,,,0.00,WUHU21623XXSP,2013-10-24 02:01:00,
2013-10-23 20:06:00,47.7,30.5,30.20,East,90,0.0,0.0,51,0.00,,,0.00,WUHU21623XXSP,2013-10-24 02:06:00,
2013-10-23 20:11:00,47.8,30.5,30.20,East,90,0.0,0.0,51,0.00,,,0.00,WUHU21623XXSP,2013-10-24 02:11:00,
2013-10-23 20:16:00,47.8,30.5,30.20,East,90,0.0,0.0,51,0.00,,,0.00,WUHU21623XXSP,2013-10-24 02:16:00,
2013-10-23 20:21:00,47.8,30.5,30.20,East,90,0.0,0.0,51,0.00,,,0.00,WUHU21623XXSP,2013-10-24 02:21:00,
2013-10-23 20:26:00,47.5,30.2,30.20,East,90,0.0,0.0,51,0.00,,,0.00,WUHU21623XXSP,2013-10-24 02:26:00,
2013-10-23 20:31:00,47.4,30.6,30.20,ESE,112,0.0,0.0,52,0.00,,,0.00,WUHU21623XXSP,2013-10-24 02:31:00,
2013-10-23 20:36:00,47.5,30.8,30.20,East,90,0.0,0.0,52,0.00,,,0.00,WUHU21623XXSP,2013-10-24 02:36:00,
2013-10-23 20:41:00,47.5,30.8,30.20,SE,135,0.0,0.0,52,0.00,,,0.00,WUHU21623XXSP,2013-10-24 02:41:00,
2013-10-23 20:46:00,47.8,30.5,30.20,SE,135,0.0,0.0,51,0.00,,,0.00,WUHU21623XXSP,2013-10-24 02:46:00,
2013-10-23 20:51:00,47.8,30.5,30.21,SE,135,0.0,0.0,51,0.00,,,0.00,WUHU21623XXSP,2013-10-24 02:51:00,
2013-10-23 20:56:00,47.8,30.6,30.20,SE,135,0.0,0.0,51,0.00,,,0.00,WUHU21623XXSP,2013-10-24 02:56:00,
2013-10-23 21:01:00,47.9,30.6,30.21,SE,135,0.0,0.0,51,0.00,,,0.00,WUHU21623XXSP,2013-10-24 03:01:00,
2013-10-23 21:06:00,47.7,30.4,30.20,SE,135,0.0,0.0,51,0.00,,,0.00,WUHU21623XXSP,2013-10-24 03:06:00,
2013-10-23 21:11:00,47.4,30.2,30.21,SE,135,0.0,1.3,51,0.00,,,0.00,WUHU21623XXSP,2013-10-24 03:11:00,
2013-10-23 21:16:00,47.2,30.0,30.21,SE,135,0.0,1.3,51,0.00,,,0.00,WUHU21623XXSP,2013-10-24 03:16:00,
2013-10-23 21:21:00,47.3,30.0,30.21,SE,135,0.0,0.0,51,0.00,,,0.00,WUHU21623XXSP,2013-10-24 03:21:00,
2013-10-23 21:26:00,47.5,30.2,30.21,SE,135,0.0,0.0,51,0.00,,,0.00,WUHU21623XXSP,2013-10-24 03:26:00,
2013-10-23 21:31:00,47.7,30.5,30.21,SE,135,0.0,0.0,51,0.00,,,0.00,WUHU21623XXSP,2013-10-24 03:31:00,
2013-10-23 21:36:00,47.9,30.6,30.21,SE,135,0.0,0.0,51,0.00,,,0.00,WUHU21623XXSP,2013-10-24 03:36:00,
2013-10-23 21:41:00,47.9,30.6,30.21,SE,135,0.0,0.0,51,0.00,,,0.00,WUHU21623XXSP,2013-10-24 03:41:00,
2013-10-23 21:46:00,47.9,30.6,30.21,SE,135,0.0,0.0,51,0.00,,,0.00,WUHU21623XXSP,2013-10-24 03:46:00,
2013-10-23 21:51:00,47.6,30.4,30.21,SE,135,0.0,0.0,51,0.00,,,0.00,WUHU21623XXSP,2013-10-24 03:51:00,
2013-10-23 21:56:00,47.1,30.3,30.21,SE,135,0.0,0.0,52,0.00,,,0.00,WUHU21623XXSP,2013-10-24 03:56:00,
2013-10-23 22:01:00,46.4,29.7,30.21,SE,135,0.0,0.0,52,0.00,,,0.00,WUHU21623XXSP,2013-10-24 04:01:00,
2013-10-23 22:06:00,46.2,30.0,30.21,SE,135,0.0,0.0,53,0.00,,,0.00,WUHU21623XXSP,2013-10-24 04:06:00,
2013-10-23 22:11:00,46.2,30.5,30.21,SE,135,0.0,0.0,54,0.00,,,0.00,WUHU21623XXSP,2013-10-24 04:11:00,
2013-10-23 22:16:00,46.3,30.5,30.21,SE,135,0.0,0.0,54,0.00,,,0.00,WUHU21623XXSP,2013-10-24 04:16:00,
2013-10-23 22:21:00,46.5,30.7,30.21,SE,135,1.6,1.6,54,0.00,,,0.00,WUHU21623XXSP,2013-10-24 04:21:00,
2013-10-23 22:26:00,46.7,30.9,30.22,SE,135,1.8,1.8,54,0.00,,,0.00,WUHU21623XXSP,2013-10-24 04:26:00,
2013-10-23 22:31:00,46.7,30.5,30.22,SE,135,0.0,1.8,53,0.00,,,0.00,WUHU21623XXSP,2013-10-24 04:31:00,
2013-10-23 22:36:00,46.7,30.5,30.22,SE,135,0.0,1.8,53,0.00,,,0.00,WUHU21623XXSP,2013-10-24 04:36:00,
2013-10-23 22:41:00,46.5,30.3,30.22,SE,135,0.0,0.0,53,0.00,,,0.00,WUHU21623XXSP,2013-10-24 04:41:00,
2013-10-23 22:46:00,46.3,30.1,30.22,SE,135,0.0,0.0,53,0.00,,,0.00,WUHU21623XXSP,2013-10-24 04:46:00,
2013-10-23 22:51:00,45.9,30.2,30.22,SE,135,0.0,0.0,54,0.00,,,0.00,WUHU21623XXSP,2013-10-24 04:51:00,
2013-10-23 22:56:00,45.5,30.3,30.22,SE,135,0.0,0.0,55,0.00,,,0.00,WUHU21623XXSP,2013-10-24 04:56:00,
2013-10-23 23:01:00,45.0,29.8,30.22,SE,135,0.0,0.0,55,0.00,,,0.00,WUHU21623XXSP,2013-10-24 05:01:00,
2013-10-23 23:06:00,44.8,29.7,30.22,SE,135,0.0,0.0,55,0.00,,,0.00,WUHU21623XXSP,2013-10-24 05:06:00,
2013-10-23 23:11:00,44.9,29.7,30.22,SE,135,0.0,0.0,55,0.00,,,0.00,WUHU21623XXSP,2013-10-24 05:11:00,
2013-10-23 23:16:00,43.8,29.1,30.22,SE,135,0.0,0.0,56,0.00,,,0.00,WUHU21623XXSP,2013-10-24 05:16:00,
2013-10-23 23:21:00,43.1,28.9,30.22,SE,135,0.0,0.0,57,0.00,,,0.00,WUHU21623XXSP,2013-10-24 05:21:00,
2013-10-23 23:26:00,42.8,29.1,30.22,SE,135,0.0,0.0,58,0.00,,,0.00,WUHU21623XXSP,2013-10-24 05:26:00,
2013-10-23 23:31:00,42.6,28.9,30.22,SE,135,0.0,0.0,58,0.00,,,0.00,WUHU21623XXSP,2013-10-24 05:31:00,
2013-10-23 23:36:00,42.2,28.5,30.22,SE,135,0.0,0.0,58,0.00,,,0.00,WUHU21623XXSP,2013-10-24 05:36:00,
2013-10-23 23:41:00,42.0,28.8,30.22,SE,135,0.0,0.0,59,0.00,,,0.00,WUHU21623XXSP,2013-10-24 05:41:00,
2013-10-23 23:46:00,42.0,28.8,30.22,SE,135,0.0,0.0,59,0.00,,,0.00,WUHU21623XXSP,2013-10-24 05:46:00,
2013-10-23 23:51:00,42.1,28.8,30.22,SE,135,0.0,0.0,59,0.00,,,0.00,WUHU21623XXSP,2013-10-24 05:51:00,
2013-10-23 23:56:00,42.1,28.8,30.21,SE,135,0.0,0.0,59,0.00,,,0.00,WUHU21623XXSP,2013-10-24 05:56:00,